TimeCDT,TemperatureF,Dew PointF,Humidity,Sea Level PressureIn,VisibilityMPH,Wind Direction,Wind SpeedMPH,Gust SpeedMPH,PrecipitationIn,Events,Conditions,WindDirDegrees,DateUTC
12:15 AM,66.0,51.8,60,29.86,10.0,East,5.8,-,N/A,,Clear,100,2013-04-02 05:15:00
12:35 AM,63.9,50.9,63,29.85,10.0,East,6.9,-,N/A,,Clear,90,2013-04-02 05:35:00
12:55 AM,61.9,49.5,64,29.86,10.0,SE,6.9,-,N/A,,Clear,140,2013-04-02 05:55:00
1:15 AM,60.8,49.1,65,29.86,10.0,ESE,4.6,-,N/A,,Clear,110,2013-04-02 06:15:00
1:35 AM,60.1,48.6,66,29.85,10.0,ESE,3.5,-,N/A,,Clear,110,2013-04-02 06:35:00
1:55 AM,58.8,47.8,67,29.85,10.0,ESE,8.1,-,N/A,,Clear,120,2013-04-02 06:55:00
2:15 AM,58.1,48.2,70,29.84,10.0,SSE,4.6,-,N/A,,Clear,150,2013-04-02 07:15:00
2:35 AM,56.5,47.3,71,29.84,10.0,SSW,5.8,-,N/A,,Clear,200,2013-04-02 07:35:00
2:55 AM,57.9,47.3,68,29.84,10.0,SSE,3.5,-,N/A,,Clear,160,2013-04-02 07:55:00
3:15 AM,55.9,45.7,68,29.84,10.0,SW,5.8,-,N/A,,Clear,220,2013-04-02 08:15:00
3:35 AM,57.2,46.4,67,29.83,10.0,WSW,6.9,-,N/A,,Clear,240,2013-04-02 08:35:00
3:55 AM,56.5,45.9,68,29.83,10.0,Calm,Calm,-,N/A,,Clear,0,2013-04-02 08:55:00
4:15 AM,53.6,44.1,70,29.83,10.0,Calm,Calm,-,N/A,,Clear,0,2013-04-02 09:15:00
4:35 AM,56.1,45.0,66,29.83,10.0,North,3.5,-,N/A,,Clear,350,2013-04-02 09:35:00
4:55 AM,55.0,43.5,65,29.84,10.0,NNW,4.6,-,N/A,,Clear,340,2013-04-02 09:55:00
5:15 AM,55.8,44.8,67,29.84,10.0,North,6.9,-,N/A,,Clear,10,2013-04-02 10:15:00
5:35 AM,54.1,44.8,71,29.84,10.0,NE,4.6,-,N/A,,Clear,50,2013-04-02 10:35:00
5:55 AM,53.1,45.1,74,29.85,10.0,Calm,Calm,-,N/A,,Clear,0,2013-04-02 10:55:00
6:15 AM,52.2,44.6,75,29.86,10.0,WNW,10.4,-,N/A,,Clear,300,2013-04-02 11:15:00
6:35 AM,53.6,46.4,77,29.88,10.0,NW,16.1,-,N/A,,Clear,310,2013-04-02 11:35:00
6:55 AM,54.3,42.6,65,29.88,10.0,NW,17.3,25.3,N/A,,Clear,320,2013-04-02 11:55:00
7:15 AM,53.8,42.8,66,29.89,10.0,NW,19.6,-,N/A,,Clear,320,2013-04-02 12:15:00
7:35 AM,53.4,42.3,66,29.90,10.0,NW,18.4,23.0,N/A,,Clear,320,2013-04-02 12:35:00
7:55 AM,53.2,42.6,67,29.91,10.0,NW,18.4,24.2,N/A,,Clear,320,2013-04-02 12:55:00
8:15 AM,52.9,42.4,68,29.93,10.0,NW,19.6,-,N/A,,Clear,320,2013-04-02 13:15:00
8:35 AM,53.2,43.0,68,29.93,10.0,NW,20.7,-,N/A,,Clear,320,2013-04-02 13:35:00
8:55 AM,54.1,43.9,68,29.95,10.0,NW,20.7,27.6,N/A,,Clear,320,2013-04-02 13:55:00
9:35 AM,56.8,46.8,69,29.98,10.0,NW,20.7,25.3,N/A,,Scattered Clouds,320,2013-04-02 14:35:00
10:35 AM,57.6,48.2,71,29.99,10.0,North,19.6,-,N/A,,Overcast,350,2013-04-02 15:35:00
11:35 AM,54.7,45.5,71,30.03,7.0,North,16.1,21.9,N/A,,Overcast,350,2013-04-02 16:35:00
11:55 AM,54.3,44.8,70,30.04,7.0,NNW,17.3,24.2,N/A,,Overcast,340,2013-04-02 16:55:00
1:15 PM,53.4,42.3,66,30.05,10.0,NNW,15.0,20.7,N/A,,Overcast,340,2013-04-02 18:15:00
1:35 PM,54.5,42.6,64,30.03,10.0,North,15.0,-,N/A,,Overcast,350,2013-04-02 18:35:00
1:55 PM,54.7,42.6,64,30.02,10.0,North,13.8,21.9,N/A,,Overcast,350,2013-04-02 18:55:00
2:15 PM,53.8,42.6,66,30.03,10.0,NNW,8.1,-,N/A,,Overcast,330,2013-04-02 19:15:00
2:35 PM,54.0,42.6,65,30.03,10.0,NNE,4.6,-,N/A,,Overcast,30,2013-04-02 19:35:00
2:55 PM,56.3,43.0,61,29.99,10.0,North,11.5,-,N/A,,Overcast,10,2013-04-02 19:55:00
3:15 PM,57.0,43.2,60,29.98,10.0,NNE,8.1,-,N/A,,Mostly Cloudy,20,2013-04-02 20:15:00
3:35 PM,57.4,43.5,60,29.97,10.0,NNE,9.2,-,N/A,,Mostly Cloudy,20,2013-04-02 20:35:00
4:35 PM,59.5,43.2,55,29.94,10.0,NNE,9.2,-,N/A,,Clear,20,2013-04-02 21:35:00
4:55 PM,59.9,42.8,53,29.94,10.0,ENE,6.9,-,N/A,,Scattered Clouds,60,2013-04-02 21:55:00
5:35 PM,60.1,42.3,52,29.93,10.0,NE,10.4,-,N/A,,Mostly Cloudy,50,2013-04-02 22:35:00
6:15 PM,60.8,42.4,51,29.91,10.0,North,8.1,-,N/A,,Clear,360,2013-04-02 23:15:00
6:55 PM,60.3,41.7,50,29.91,10.0,North,9.2,-,N/A,,Clear,10,2013-04-02 23:55:00
7:35 PM,58.5,42.3,55,29.91,10.0,ENE,12.7,-,N/A,,Clear,70,2013-04-03 00:35:00
8:15 PM,54.3,40.6,60,29.93,10.0,ENE,13.8,-,N/A,,Clear,60,2013-04-03 01:15:00
9:55 PM,48.9,38.8,68,29.97,10.0,NE,11.5,-,N/A,,Clear,40,2013-04-03 02:55:00
10:15 PM,48.2,38.7,70,29.99,10.0,NE,11.5,-,N/A,,Clear,40,2013-04-03 03:15:00
10:35 PM,47.7,38.5,70,30.02,10.0,NE,9.2,-,N/A,,Scattered Clouds,50,2013-04-03 03:35:00
11:35 PM,47.8,40.1,75,30.06,10.0,ENE,10.4,-,N/A,,Overcast,60,2013-04-03 04:35:00
11:55 PM,47.7,40.1,75,30.07,10.0,NE,8.1,-,N/A,,Overcast,40,2013-04-03 04:55:00